Location: Wellington
(41.3000°S, 174.7830°E)
Time: 04:36:39
(UTC+13:00)

Cosmos 2208 Rocket - Pass Details

Date: 24 January 2019
Orbit: 755 x 805 km, 74.0° (Epoch: 21 October)

Event Time Altitude Azimuth Distance (km) Brightness Sun altitude
Rises 21:58:54 0° 202° (SSW) 3,251 8.4 -11.8°
Reaches altitude 10° 22:01:17 10° 204° (SSW) 2,321 7.6 -12.1°
Maximum altitude 22:06:31 71° 286° (WNW) 818 4.2 -12.9°
Enters shadow 22:11:27 12° 9° (N) 2,203 5.9 -13.6°
